Ionia, MI

9:12 PM EST on November 22, 2019 (GMT -0500)
Ionia

Weather History for KY70 - September, 2019

Change the Weather History Date:

Tuesday, September 10, 2019

  Actual Average (WUND) Record (WUND)
Temperature  
Mean Temperature 74 °F -  
Max Temperature 85 °F - - (-1)
Min Temperature 62 °F - - (-1)
Cooling Degree Days 8    
Growing Degree Days 24 (Base 50)    
Moisture  
Dew Point 64 °F    
Average Humidity 77    
Maximum Humidity 93    
Minimum Humidity 54    
Precipitation  
Precipitation 0.06 in - - ()
Sea Level Pressure  
Sea Level Pressure 30.09 in    
Wind  
Wind Speed 8 mph ()    
Max Wind Speed 16 mph    
Max Gust Speed 22 mph    
Visibility 9.5 miles    
Events Rain    
Averages and records for this station are not official NWS values.
T = Trace of Precipitation, MM = Missing Value Source: Averaged Metar Reports

Daily Weather History Graph

Daily Weather History Graph

Search for Another Location

Airport or City:

Astronomy

Sep. 10, 2019 Rise Set
Actual Time 7:14 AM EDT 7:59 PM EDT
Civil Twilight 6:45 AM EDT 8:28 PM EDT
Nautical Twilight 6:11 AM EDT 9:02 PM EDT
Astronomical Twilight 5:36 AM EDT 9:37 PM EDT
Moon 6:41 PM EDT (9/10) 3:33 AM EDT (9/10)
Length of Visible Light 13h 42m
Length of Day
12h 45m
Waxing Gibbous, 89% of the Moon is Illuminated
Sep 10
Waxing Gibbous
Sep 14
Full
Sep 21
Last Quarter
Sep 28
New
Oct 5
First Quarter

Hourly Weather History & Observations

Time (EDT) Temp. Heat Index Dew Point Humidity Pressure Visibility Wind Dir Wind Speed Gust Speed Precip Events Conditions
12:17 AM 64.4 °F - 58.8 °F 82% 30.16 in 10.0 mi SE 10.4 mph - N/A   Mostly Cloudy
12:35 AM 64.6 °F - 58.5 °F 80% 30.16 in 10.0 mi SE 10.4 mph - N/A   Scattered Clouds
12:36 AM 64.6 °F - 58.5 °F 80% 30.16 in 10.0 mi SE 10.4 mph - N/A   Scattered Clouds
12:55 AM 64.8 °F - 58.3 °F 79% 30.17 in 10.0 mi SE 9.2 mph - N/A   Scattered Clouds
1:15 AM 64.8 °F - 58.3 °F 79% 30.16 in 10.0 mi SE 9.2 mph - N/A   Overcast
1:38 AM 64.6 °F - 58.6 °F 81% 30.16 in 10.0 mi SE 9.2 mph - N/A   Overcast
1:55 AM 64.6 °F - 58.8 °F 82% 30.16 in 10.0 mi SE 10.4 mph - N/A   Overcast
2:15 AM 64.0 °F - 58.5 °F 82% 30.16 in 10.0 mi SE 9.2 mph - N/A   Mostly Cloudy
2:16 AM 64.0 °F - 58.5 °F 82% 30.16 in 10.0 mi SE 8.1 mph - N/A   Mostly Cloudy
2:35 AM 63.7 °F - 58.6 °F 84% 30.15 in 10.0 mi SE 9.2 mph - N/A   Mostly Cloudy
2:59 AM 63.5 °F - 58.5 °F 84% 30.13 in 10.0 mi SE 9.2 mph - N/A   Scattered Clouds
3:17 AM 63.7 °F - 58.3 °F 83% 30.13 in 10.0 mi SSE 9.2 mph - N/A   Clear
3:35 AM 63.5 °F - 58.3 °F 83% 30.12 in 10.0 mi SSE 10.4 mph - N/A   Clear
3:36 AM 63.5 °F - 58.3 °F 83% 30.12 in 10.0 mi SE 11.5 mph - N/A   Clear
3:55 AM 63.7 °F - 58.1 °F 82% 30.12 in 10.0 mi SE 8.1 mph - N/A   Clear
3:56 AM 63.7 °F - 58.1 °F 82% 30.12 in 10.0 mi SE 6.9 mph - N/A   Clear
4:15 AM 63.7 °F - 58.1 °F 82% 30.12 in 10.0 mi SSE 5.8 mph - N/A   Clear
4:37 AM 63.1 °F - 58.1 °F 84% 30.12 in 10.0 mi SSE 6.9 mph - N/A   Clear
4:55 AM 63.1 °F - 57.9 °F 83% 30.12 in 10.0 mi SSE 6.9 mph - N/A   Clear
4:56 AM 63.1 °F - 57.7 °F 83% 30.12 in 10.0 mi SSE 6.9 mph - N/A   Clear
5:15 AM 62.8 °F - 57.9 °F 84% 30.11 in 10.0 mi SSE 8.1 mph - N/A   Clear
5:35 AM 62.8 °F - 58.1 °F 85% 30.10 in 7.0 mi SSE 8.1 mph - N/A   Clear
5:58 AM 62.8 °F - 57.9 °F 84% 30.10 in 7.0 mi SSE 5.8 mph - N/A   Clear
6:16 AM 63.0 °F - 58.1 °F 84% 30.10 in 7.0 mi South 4.6 mph - N/A   Clear
6:35 AM 62.6 °F - 58.1 °F 85% 30.10 in 7.0 mi SSE 4.6 mph - N/A   Clear
6:55 AM 63.7 °F - 58.3 °F 83% 30.11 in 7.0 mi South 3.5 mph - N/A   Clear
6:56 AM 63.5 °F - 58.3 °F 83% 30.11 in 7.0 mi South 3.5 mph - N/A   Clear
7:19 AM 63.7 °F - 58.6 °F 84% 30.11 in 7.0 mi Calm Calm - N/A   Scattered Clouds
7:37 AM 63.5 °F - 59.4 °F 86% 30.11 in 7.0 mi South 4.6 mph - N/A   Scattered Clouds
7:56 AM 64.6 °F - 59.4 °F 83% 30.12 in 10.0 mi Calm Calm - N/A   Clear
8:15 AM 64.9 °F - 59.7 °F 83% 30.13 in 10.0 mi SW 4.6 mph - N/A   Clear
8:35 AM 65.3 °F - 60.1 °F 83% 30.14 in 10.0 mi WSW 4.6 mph - N/A   Scattered Clouds
9:17 AM 65.3 °F - 60.8 °F 85% 30.13 in 10.0 mi South 4.6 mph - N/A   Clear
9:35 AM 65.7 °F - 61.7 °F 87% 30.13 in 10.0 mi SSW 4.6 mph - N/A Rain Light Rain
10:02 AM 66.6 °F - 62.6 °F 87% 30.13 in 10.0 mi South 4.6 mph - N/A Rain Light Rain
10:15 AM 66.4 °F - 63.3 °F 90% 30.15 in 10.0 mi SW 9.2 mph - 0.01 in Rain Rain
10:20 AM 66.4 °F - 63.5 °F 90% 30.14 in 10.0 mi SW 6.9 mph - 0.01 in Rain Rain
10:38 AM 67.1 °F - 64.6 °F 92% 30.13 in 7.0 mi SW 8.1 mph - 0.04 in Rain Light Rain
10:56 AM 68.0 °F - 65.5 °F 92% 30.13 in 7.0 mi SSW 5.8 mph - 0.04 in Rain Light Rain
11:15 AM 68.0 °F - 65.7 °F 92% 30.13 in 7.0 mi South 6.9 mph - 0.01 in Rain Light Rain
11:35 AM 68.0 °F - 65.7 °F 92% 30.14 in 5.0 mi South 6.9 mph - 0.01 in Rain Light Rain
11:36 AM 68.0 °F - 65.8 °F 93% 30.13 in 5.0 mi South 5.8 mph - 0.01 in Rain Light Rain
11:59 AM 68.7 °F - 66.4 °F 92% 30.14 in 7.0 mi WSW 4.6 mph - 0.02 in Rain Light Rain
12:17 PM 68.5 °F - 66.4 °F 93% 30.13 in 10.0 mi South 3.5 mph - N/A   Overcast
12:35 PM 70.2 °F - 67.5 °F 91% 30.12 in 10.0 mi South 6.9 mph - N/A   Overcast
12:36 PM 70.2 °F - 67.5 °F 91% 30.11 in 10.0 mi South 6.9 mph - N/A   Overcast
12:55 PM 71.8 °F - 67.8 °F 87% 30.11 in 10.0 mi South 9.2 mph - N/A   Overcast
12:56 PM 72.0 °F - 67.8 °F 87% 30.11 in 10.0 mi South 9.2 mph - N/A   Overcast
1:15 PM 73.8 °F - 68.2 °F 83% 30.11 in 10.0 mi South 8.1 mph - N/A   Scattered Clouds
1:37 PM 75.6 °F - 68.2 °F 78% 30.10 in 10.0 mi South 9.2 mph - N/A   Scattered Clouds
1:56 PM 77.4 °F - 66.6 °F 69% 30.09 in 10.0 mi South 9.2 mph - N/A   Scattered Clouds
2:15 PM 79.2 °F - 66.9 °F 66% 30.09 in 10.0 mi South 10.4 mph - N/A   Clear
2:16 PM 79.3 °F - 66.9 °F 66% 30.09 in 10.0 mi South 10.4 mph - N/A   Clear
2:35 PM 80.2 °F 82.7 °F 67.5 °F 65% 30.08 in 10.0 mi South 13.8 mph 19.6 mph N/A   Clear
2:36 PM 80.2 °F 82.7 °F 67.6 °F 65% 30.08 in 10.0 mi South 13.8 mph 19.6 mph N/A   Clear
2:58 PM 81.0 °F 83.8 °F 68.0 °F 65% 30.07 in 10.0 mi SSW 11.5 mph 19.6 mph N/A   Clear
3:17 PM 82.8 °F 86.0 °F 68.4 °F 62% 30.06 in 10.0 mi South 13.8 mph - N/A   Clear
3:35 PM 83.8 °F 87.0 °F 68.2 °F 59% 30.05 in 10.0 mi SSW 16.1 mph - N/A   Clear
3:36 PM 83.8 °F 87.0 °F 68.0 °F 59% 30.05 in 10.0 mi SSW 13.8 mph 17.3 mph N/A   Clear
3:55 PM 84.6 °F 87.6 °F 68.0 °F 57% 30.05 in 10.0 mi SSW 16.1 mph 20.7 mph N/A   Clear
4:15 PM 84.7 °F 87.6 °F 67.5 °F 56% 30.04 in 10.0 mi South 15.0 mph 19.6 mph N/A   Clear
4:38 PM 84.6 °F 87.4 °F 67.1 °F 56% 30.04 in 10.0 mi SSW 16.1 mph 21.9 mph N/A   Clear
4:56 PM 84.7 °F 87.6 °F 67.3 °F 56% 30.03 in 10.0 mi South 11.5 mph 18.4 mph N/A   Clear
5:15 PM 85.1 °F 87.9 °F 67.1 °F 55% 30.03 in 10.0 mi South 13.8 mph 21.9 mph N/A   Clear
5:16 PM 85.1 °F 87.9 °F 67.1 °F 55% 30.03 in 10.0 mi South 16.1 mph 21.9 mph N/A   Clear
5:35 PM 85.6 °F 88.5 °F 67.3 °F 54% 30.03 in 10.0 mi South 12.7 mph 19.6 mph N/A   Clear
5:36 PM 85.6 °F 88.5 °F 67.1 °F 54% 30.03 in 10.0 mi South 15.0 mph 19.6 mph N/A   Clear
5:59 PM 85.8 °F 88.8 °F 67.6 °F 54% 30.02 in 10.0 mi SSW 11.5 mph - N/A   Clear
6:17 PM 84.6 °F 87.6 °F 67.6 °F 57% 30.02 in 10.0 mi SSW 8.1 mph - N/A   Clear
6:35 PM 83.1 °F 86.1 °F 68.0 °F 60% 30.02 in 10.0 mi SSW 11.5 mph - N/A   Clear
6:55 PM 83.3 °F 86.6 °F 68.4 °F 61% 30.01 in 10.0 mi SSW 13.8 mph 18.4 mph N/A   Clear
6:56 PM 83.3 °F 86.6 °F 68.4 °F 61% 30.01 in 10.0 mi SSW 13.8 mph 18.4 mph N/A   Clear
7:15 PM 83.3 °F 86.6 °F 68.7 °F 61% 30.00 in 10.0 mi SSW 15.0 mph 20.7 mph N/A   Clear
7:20 PM 83.3 °F 86.6 °F 68.5 °F 61% 30.00 in 10.0 mi SSW 12.7 mph 20.7 mph N/A   Clear
7:38 PM 82.0 °F 85.3 °F 68.9 °F 64% 30.02 in 10.0 mi SW 11.5 mph - N/A   Clear
7:56 PM 81.1 °F 84.4 °F 69.1 °F 67% 30.02 in 10.0 mi SW 9.2 mph - N/A   Clear
8:15 PM 79.2 °F - 69.4 °F 72% 30.03 in 10.0 mi WSW 5.8 mph - N/A   Scattered Clouds
8:35 PM 78.8 °F - 69.8 °F 74% 30.04 in 10.0 mi WSW 4.6 mph - N/A   Mostly Cloudy
8:59 PM 78.1 °F - 69.8 °F 76% 30.04 in 10.0 mi WSW 4.6 mph - N/A   Mostly Cloudy
9:17 PM 77.9 °F - 69.8 °F 76% 30.05 in 10.0 mi West 4.6 mph - N/A   Scattered Clouds
9:35 PM 77.0 °F - 69.1 °F 76% 30.05 in 10.0 mi West 6.9 mph - N/A   Mostly Cloudy
9:36 PM 76.6 °F - 69.3 °F 78% 30.05 in 10.0 mi West 5.8 mph - N/A   Mostly Cloudy
9:55 PM 77.0 °F - 69.8 °F 78% 30.06 in 10.0 mi WSW 4.6 mph - N/A   Scattered Clouds
10:15 PM 75.2 °F - 69.8 °F 83% 30.07 in 10.0 mi WSW 4.6 mph - N/A   Scattered Clouds
10:38 PM 74.7 °F - 69.8 °F 85% 30.07 in 10.0 mi SW 5.8 mph - N/A   Clear
10:56 PM 74.5 °F - 69.8 °F 85% 30.07 in 10.0 mi WSW 6.9 mph - N/A   Clear
11:15 PM 73.9 °F - 69.4 °F 86% 30.07 in 10.0 mi SW 5.8 mph - N/A   Clear
11:35 PM 72.9 °F - 69.1 °F 88% 30.07 in 10.0 mi WSW 5.8 mph - N/A   Clear
11:59 PM 72.5 °F - 68.5 °F 87% 30.08 in 10.0 mi SW 4.6 mph - N/A   Clear